Back to catalog

COSMOS 1717

AliveMilitaryLEO
NORAD 16450·PAYLOAD·🇷🇺 Russia

Launched Jan 9, 1986 from Plesetsk Cosmodrome

Loading…

Next Passes (next 24 hours)

TLE

FreshSource: Space-Track

Epoch: Sep 14, 2026, 10:23 UTC

1 16450U 86002B   26257.43323667 -.00000034  00000-0 -13220-3 0  9998
2 16450  73.9871  65.8483 0024331 214.9487 170.2683 12.42994046845886

Track COSMOS 1717 in real time with AllMySat

Download on the App Store